Home   Weather   Bozeman   Past weeks

Flag for USA Past Weather in Bozeman, Montana, USA — Yesterday and Last 2 Weeks

Now
38 °F

Clear.


Feels Like: 31 °F
Forecast: 36 / 65 °F
Wind: 10 mph from Southeast

Location: Gallatin Field

Current Time: Sep 25, 2016 at 1:17:13 AM

Latest Report: Sep 24, 2016 at 11:56 PM


Visibility: 10 mi

Pressure: 30.38 "Hg (25.34 "Hg at 1469m altitude)

Humidity: 83%

Dew Point: 33 °F

Location of BozemanLocation

Past Weather in Bozeman — Graph

°F

Bozeman Temperature Yesterday

Maximum temperature yesterday: 59 °F (at 2:56 PM)
Minimum temperature yesterday: 38 °F (at 10:56 PM)
Average temperature yesterday: 50 °F

High & Low Weather Summary for the Past Weeks

 TemperatureHumidityPressure
High80 °F (Sep 10, 4:56 PM)97% (Sep 14, 11:56 PM)30.38 "Hg (Sep 14, 11:56 PM)
Low35 °F (Sep 10, 6:56 AM)16% (Sep 10, 4:56 PM)29.77 "Hg (Sep 11, 1:56 PM)
Average53 °F67%30.03 "Hg
* Reported Sep 9 11:56 PM — Sep 24 11:56 PM, Bozeman, Weather by CustomWeather, © 2016

Note: Actual official high and low records may vary slightly from our data, if they occured in-between our weather recording intervals... More about our weather records

Advertising

Bozeman Weather History for the Previous 24 Hours

Scroll right to see more
 ConditionsComfort  
Time TempWeatherWind HumidityBarometerVisibility
11:56 PM
Sat, Sep 24
38 °FClear.10 mph83%30.38 "Hg10 mi
10:56 PM38 °FClear.7 mph83%30.38 "Hg10 mi
9:56 PM44 °FClear.6 mph68%30.36 "Hg10 mi
8:56 PM46 °FClear.9 mph66%30.33 "Hg10 mi
7:56 PM52 °FPassing clouds.12 mph47%30.28 "Hg8 mi
6:56 PM57 °FPartly sunny.13 mph41%30.23 "Hg5 mi
5:56 PM58 °FOvercast.13 mph36%30.20 "Hg10 mi
4:56 PM57 °FPartly sunny.6 mph49%30.20 "Hg10 mi
3:56 PM57 °FMostly cloudy.3 mph49%30.18 "Hg10 mi
2:56 PM59 °FPartly sunny.No wind48%30.14 "Hg10 mi
1:56 PM54 °FMostly cloudy.12 mph59%30.14 "Hg10 mi
12:56 PM57 °FOvercast.20 mph46%30.11 "Hg10 mi
11:56 AM53 °FMostly cloudy.16 mph55%30.13 "Hg10 mi
10:56 AM51 °FOvercast.14 mph61%30.12 "Hg10 mi
9:56 AM49 °FMostly cloudy.10 mph71%30.11 "Hg10 mi
8:56 AM48 °FOvercast.3 mph80%30.10 "Hg10 mi
7:56 AM46 °FMore clouds than sun.3 mph86%30.09 "Hg10 mi
6:56 AM47 °FOvercast.7 mph80%30.04 "Hg10 mi
5:56 AM47 °FOvercast.5 mph83%30.03 "Hg10 mi
4:56 AM47 °FOvercast.3 mph80%30.01 "Hg10 mi
3:56 AM45 °FPassing clouds.No wind82%30.01 "Hg10 mi
2:56 AM44 °FPassing clouds.3 mph89%30.01 "Hg10 mi
1:56 AM47 °FPassing clouds.6 mph83%29.98 "Hg10 mi
Weather by CustomWeather, © 2016

See weather overviewHow to use our weather pages